STARLINK-1411 (45706 NORAD) Tracking and Keplerian Element Data

This shows tracking and keplerian element data for the satellite.

Feedback or suggestion? Click here.




ElementValue
Catalog45706
NameSTARLINK-1411
Epoch Orbit552
Epoch Day185.50001157
Epoch Year2020
RAAN24.9876
Inclination52.9999
Eccentricity0.0001178
Argument of Perigee84.4437
Mean Anonmoly338.4153
Mean Motion15.62728128
Decay Rate0.00046782
L11 45706U 20035BB 20185.50001157 .00046782 00000-0 51429-3 0 9998
L22 45706 52.9999 24.9876 0001178 84.4437 338.4153 15.62728128 5521

Live tracking and technical data element details for STARLINK-1411 (NORAD 45706). STARLINK-1411 can be tracked NOW for your location showing map with azimuth and elevation plus other details from your city location.

Track the satellite on the map from your city or location and see movement details for azimuth, elevation, latitude, longitude, range, height, and movement on the map or in text.







IsCatalogInMostPopularTable: catalog: 45706, numindb: 4
Update: records affected: 1



GetName: 45706 STARLINK-1411

Hit Count: updated at: Sat, 04 Jul 2020 02:50:10 GMT